Location: Unspecified
(0.0000°N, 0.0000°E)
Time: 17:33:24
(UTC+00:00)

Tiros 1 - Visible Passes

Search period start: 24 February 2018 00:00
Search period end: 06 March 2018 00:00
Orbit: 630 x 665 km, 48.4° (Epoch: 24 February)

Date Brightness Start Highest point End Pass type
(mag) Time Alt. Az. Time Alt. Az. Time Alt. Az.
04 Mar 9.5 20:08:29 10° NNW 20:09:09 14° NNW 20:09:09 14° NNW visible
05 Mar 8.9 18:54:41 10° NNE 18:57:02 14° NE 18:57:45 13° ENE visible
05 Mar 9.8 20:34:35 10° NW 20:35:31 15° WNW 20:35:31 15° WNW visible
